User: anonymous   Login
Location: Newark
(33.4453°N, 112.0669°W)
Time: 19:21:34
(UTC+00:00)
Language:

A-11 Canister half - Orbit

View from above orbital plane
View from above orbital plane
View from above satellite
View from above satellite

Ground track
Ground track

The orbit data is extracted from the following two-line orbital elements,

1    51U 60009C   20052.33775934 -.00000134  00000-0 -47820-3 0  9995
2    51  47.2149 349.7440 0103983 175.5358 184.6379 12.18270739649809
Epoch (UTC): 21 February 2020 08:06:22
Eccentricity: 0.0103983
inclination: 47.2149°
perigee height: 1517 km
apogee height: 1683 km
right ascension of ascending node: 349.7440°
argument of perigee: 175.5358°
revolutions per day: 12.18270739
mean anomaly at epoch: 184.6379°
orbit number at epoch: 64980

The dashed part of the orbit path shows where the satellite is in the earth's shadow,  

DLR